Stations météo

réclame
Mon MeteoGroup
Nürburg/Barweiler, Allemagne (10506): Température de l'air & dewpoint: 14.06.2018 07:00:00 - 20.06.2018 07:00:00 (CEST)Nürburg/Barweiler, Allemagne (10506): Température de l'air 5cm & Température de l'air -5cm: 14.06.2018 07:00:00 - 20.06.2018 07:00:00 (CEST)Nürburg/Barweiler, Allemagne (10506): Température de l'air -20cm & Température de l'air -100cm: 14.06.2018 07:00:00 - 20.06.2018 07:00:00 (CEST)Nürburg/Barweiler, Allemagne (10506): Vitesse du vent & gusts: 14.06.2018 07:00:00 - 20.06.2018 07:00:00 (CEST)Nürburg/Barweiler, Allemagne (10506): Direction du vent: 14.06.2018 07:00:00 - 20.06.2018 07:00:00 (CEST)Nürburg/Barweiler, Allemagne (10506): reduced air pressure: 14.06.2018 07:00:00 - 20.06.2018 07:00:00 (CEST)Nürburg/Barweiler, Allemagne (10506): visibility: 14.06.2018 07:00:00 - 20.06.2018 07:00:00 (CEST)Nürburg/Barweiler, Allemagne (10506): Ensoleillement: 14.06.2018 07:00:00 - 20.06.2018 07:00:00 (CEST)Nürburg/Barweiler, Allemagne (10506): Quantités de précipitations: 14.06.2018 07:00:00 - 20.06.2018 07:00:00 (CEST)
Date & Time tt [°C] td [°C] tt 5cm [°C] tt -5cm [°C] tt -20cm [°C] tt -100cm [°C] ff [km/h] ff [knt] fx [km/h] fx [knt] dd ppp [hPa] vv [km] sd [min] rr [mm]
20.06.2018 07:00:00 16,0 13,7 15,0 16,1 17,4 15,0 6 3 14 7 S 1022,9 7 32 0,0
20.06.2018 06:00:00 14,9 13,9 13,5 15,8 17,5 15,0 6 3 9 5 S 1023,3 9 0 0,0
20.06.2018 05:00:00 15,5 14,4 14,9 16,5 17,6 15,0 0 0 8 4 N 1023,6 21 0 0,0
20.06.2018 04:00:00 15,3 14,3 14,9 16,6 17,7 15,0 3 2 6 3 S 1023,7 14 0 0,0
20.06.2018 03:00:00 16,0 14,6 15,2 16,7 17,9 15,0 4 2 7 4 SSE 1023,9 21 0 0,0
20.06.2018 02:00:00 15,9 14,7 15,0 16,7 18,0 15,0 0 0 6 4 N 1024,5 20 0 0,0
20.06.2018 01:00:00 15,6 14,6 13,7 17,3 18,2 15,0 2 1 6 3 NE 1024,5 20 0 0,0
20.06.2018 00:00:00 16,4 14,7 15,5 18,0 18,3 15,0 4 2 8 4 ENE 1024,5 25 0 0,0
19.06.2018 23:00:00 16,8 14,7 15,9 18,6 18,3 15,0 5 3 8 4 ENE 1024,5 36 0 0,0
19.06.2018 22:00:00 17,5 14,6 16,4 19,4 18,3 15,0 5 3 7 4 NNE 1023,9 46 0 0,0
19.06.2018 21:00:00 18,4 14,2 18,1 20,3 18,2 15,0 5 3 14 7 W 1023,9 55 0 0,0
19.06.2018 20:00:00 19,3 14,2 19,6 21,0 18,1 15,0 4 2 11 6 NW 1023,7 61 0 0,0
19.06.2018 19:00:00 19,3 13,6 19,5 21,7 17,8 15,0 8 5 20 11 WNW 1023,8 56 14 0,0
19.06.2018 18:00:00 20,3 13,2 22,2 22,1 17,6 15,0 8 4 18 10 WNW 1023,7 33 11 0,0
19.06.2018 17:00:00 19,8 13,8 22,6 21,5 17,3 15,0 6 4 21 12 WNW 1023,9 45 0 0,0
19.06.2018 16:00:00 18,9 13,9 20,8 20,9 17,1 15,0 10 5 18 10 WSW 1024,3 43 1 0,0
19.06.2018 15:00:00 18,6 14,3 20,2 20,4 16,9 15,0 9 5 18 10 W 1024,2 41 0 0,0
19.06.2018 14:00:00 18,2 13,5 20,8 19,9 16,7 15,0 7 4 14 8 SW 1024,3 35 0 0,0
19.06.2018 13:00:00 17,6 13,7 18,7 19,4 16,5 15,0 2 1 - - S 1024,6 38 0 0,0
19.06.2018 12:00:00 17,0 13,6 18,5 18,8 16,3 15,0 - - - - - 1024,4 29 0 0,0
19.06.2018 11:00:00 16,8 13,4 18,0 18,0 16,2 15,0 - - 16 9 - 1024,2 31 0 0,0
19.06.2018 10:00:00 16,2 13,1 17,8 17,2 16,1 15,0 10 5 16 9 WSW 1024,2 30 1 0,0
19.06.2018 09:00:00 14,9 12,8 16,0 15,4 16,2 15,0 9 5 17 9 WSW 1024,2 16 0 0,0
19.06.2018 08:00:00 13,8 12,2 13,9 14,6 16,3 15,0 8 4 12 6 SW 1024,3 10 0 0,0
19.06.2018 07:00:00 13,5 11,7 13,4 14,1 16,5 15,0 7 4 13 7 SSW 1023,9 15 0 0,0
19.06.2018 06:00:00 13,1 11,2 12,7 13,6 16,7 15,0 9 5 16 9 WSW 1023,7 16 0 0,0
19.06.2018 05:00:00 12,8 11,1 11,3 14,0 16,9 15,1 11 6 19 11 SW 1023,4 14 0 0,0
19.06.2018 04:00:00 13,7 11,4 12,4 14,4 17,0 15,1 15 8 24 13 WSW 1023,2 15 0 0,0
19.06.2018 03:00:00 14,3 11,9 12,8 14,9 17,2 15,1 11 6 20 11 WSW 1022,9 21 0 0,0
19.06.2018 02:00:00 15,2 13,0 14,0 15,4 17,4 15,1 13 7 23 12 W 1022,8 25 0 0,0
19.06.2018 01:00:00 15,0 13,2 13,5 15,6 17,6 15,1 11 6 18 10 SW 1022,4 22 0 0,0
19.06.2018 00:00:00 15,4 13,2 14,2 16,1 17,7 15,1 13 7 19 10 SW 1022,4 28 0 0,0
18.06.2018 23:00:00 15,6 13,3 14,0 16,8 17,8 15,1 10 6 16 9 SW 1022,0 27 0 0,0
18.06.2018 22:00:00 16,4 13,4 15,0 17,8 17,8 15,1 11 6 18 10 SW 1021,5 26 11 0,0
18.06.2018 21:00:00 17,9 13,4 17,0 18,9 17,8 15,1 9 5 22 12 SW 1021,0 23 19 0,0
18.06.2018 20:00:00 18,4 13,2 18,5 19,7 17,7 15,1 11 6 23 13 SW 1020,9 27 25 0,0
18.06.2018 19:00:00 18,6 13,1 19,3 20,0 17,6 15,1 13 7 24 13 WSW 1020,8 34 7 0,0
18.06.2018 18:00:00 18,3 13,0 19,2 20,0 17,5 15,1 13 7 23 13 SW 1021,2 28 6 0,0
18.06.2018 17:00:00 17,8 12,9 18,7 19,4 17,3 15,1 11 6 20 11 SW 1021,6 30 0 0,0
18.06.2018 16:00:00 17,8 12,5 18,4 20,0 17,1 15,1 10 6 26 14 SW 1021,7 30 0 0,0
18.06.2018 15:00:00 18,2 11,8 19,2 21,0 16,8 15,1 14 7 29 15 WSW 1021,2 37 0 0,0
18.06.2018 14:00:00 18,5 11,4 20,3 20,8 16,6 15,1 14 8 27 15 SW 1021,1 35 6 0,0
18.06.2018 13:00:00 17,2 11,1 18,1 19,7 16,3 15,1 15 8 31 17 WSW 1021,3 34 0 0,0
18.06.2018 12:00:00 17,4 9,9 19,3 20,2 16,0 15,1 16 9 27 14 WSW 1021,3 19 33 0,0
18.06.2018 11:00:00 16,6 10,6 18,9 18,0 15,9 15,1 13 7 27 15 SW 1021,3 25 12 0,0
18.06.2018 10:00:00 15,6 10,4 16,9 16,7 15,8 15,1 14 8 25 13 SW 1021,5 31 17 0,0
18.06.2018 09:00:00 14,4 9,9 15,6 14,6 15,9 15,1 12 7 21 11 SW 1021,6 33 0 0,0
18.06.2018 08:00:00 13,0 9,6 13,0 13,9 16,0 15,1 8 5 15 8 SW 1021,7 30 0 0,0
18.06.2018 07:00:00 12,5 9,1 12,5 13,6 16,1 15,1 9 5 14 8 SSW 1021,7 27 0 0,0
18.06.2018 06:00:00 12,1 9,0 11,4 13,6 16,3 15,1 9 5 15 8 S 1021,5 26 0 0,0
18.06.2018 05:00:00 12,2 8,9 11,8 13,8 16,4 15,1 9 5 14 7 S 1021,3 28 0 0,0
18.06.2018 04:00:00 12,5 8,8 12,1 13,9 16,6 15,1 9 5 13 7 S 1021,2 28 0 0,0
18.06.2018 03:00:00 12,6 8,9 12,0 14,1 16,8 15,1 8 4 10 6 SSW 1021,5 27 0 0,0
18.06.2018 02:00:00 12,3 8,7 11,8 14,2 17,0 15,1 8 4 11 6 SSW 1021,6 31 0 0,0
18.06.2018 01:00:00 12,3 8,5 11,7 14,4 17,2 15,1 9 5 12 7 SSW 1021,3 32 0 0,0
18.06.2018 00:00:00 12,7 8,2 12,0 14,7 17,5 15,1 11 6 15 8 WSW 1021,2 33 0 0,0
17.06.2018 23:00:00 12,6 8,0 11,7 15,0 17,6 15,1 8 5 12 7 WSW 1020,9 32 0 0,0
17.06.2018 22:00:00 12,8 7,5 11,0 16,1 17,8 15,1 8 5 18 10 W 1020,7 36 23 0,0
17.06.2018 21:00:00 14,3 8,5 13,9 17,1 17,9 15,1 8 4 16 8 WSW 1020,1 - 2 0,0
17.06.2018 20:00:00 14,2 8,1 13,7 17,6 18,0 15,1 14 8 27 15 W 1020,1 - 0 0,0
17.06.2018 19:00:00 14,7 8,5 15,1 18,2 18,0 15,1 14 7 29 15 W 1019,5 - 0 0,0
17.06.2018 18:00:00 15,7 9,5 16,0 18,8 18,0 15,1 13 7 26 14 W 1018,9 43 0 0,0
17.06.2018 17:00:00 16,2 8,9 16,5 19,3 17,9 15,1 15 8 32 18 W 1018,7 38 0 0,0
17.06.2018 16:00:00 16,8 8,3 18,0 19,8 17,8 15,1 17 9 31 17 WSW 1018,3 22 0 0,0
17.06.2018 15:00:00 16,9 9,1 17,6 20,5 17,5 15,1 17 9 29 16 WSW 1017,9 33 5 0,0
17.06.2018 14:00:00 17,6 10,5 20,4 20,7 17,3 15,0 13 7 27 15 WSW 1017,4 21 3 0,0
17.06.2018 13:00:00 17,3 9,0 19,7 20,7 17,1 15,0 14 8 34 18 SW 1017,4 21 33 0,0
17.06.2018 12:00:00 16,1 9,7 17,0 20,1 16,9 15,0 14 8 30 16 WSW 1017,7 26 24 0,0
17.06.2018 11:00:00 16,6 10,5 18,8 19,0 16,7 15,0 13 7 25 14 WSW 1017,6 23 34 0,0
17.06.2018 10:00:00 15,7 10,1 17,3 17,8 16,7 15,0 13 7 22 12 SW 1017,9 20 50 0,0
17.06.2018 09:00:00 14,8 10,5 16,1 16,3 16,8 15,0 9 5 14 8 SW 1017,8 21 30 0,0
17.06.2018 08:00:00 13,2 10,7 13,4 15,1 16,9 15,0 5 3 9 5 SSW 1017,9 16 27 0,0
17.06.2018 07:00:00 11,7 9,6 11,0 14,0 17,2 15,0 5 3 10 5 SSW 1018,2 17 3 0,0
17.06.2018 06:00:00 11,2 9,8 10,5 13,9 17,4 15,0 7 4 9 5 SSW 1018,1 15 0 0,0
17.06.2018 05:00:00 11,3 10,1 9,9 14,3 17,7 15,0 5 3 8 4 SSW 1017,9 12 0 0,0
17.06.2018 04:00:00 11,5 10,8 10,3 14,9 17,9 15,0 5 3 9 5 SW 1017,7 6 0 0,0
17.06.2018 03:00:00 11,9 11,3 10,7 15,5 18,2 15,0 3 2 9 5 WSW 1017,5 - 0 0,0
17.06.2018 02:00:00 12,8 11,3 11,1 15,9 18,4 15,0 5 3 10 6 W 1017,0 - 0 0,0
17.06.2018 01:00:00 13,7 11,5 12,4 16,5 18,7 15,0 7 4 14 8 SW 1016,8 - 0 0,0
17.06.2018 00:00:00 13,9 12,3 13,0 17,3 18,9 15,0 8 5 12 6 W 1017,0 - 0 0,0
16.06.2018 23:00:00 14,4 12,9 13,5 18,1 19,1 15,0 7 4 16 9 NW 1016,4 12 0 0,0
16.06.2018 22:00:00 16,0 14,1 15,3 18,8 19,3 15,0 9 5 20 11 W 1015,8 23 0 8,0
16.06.2018 21:00:00 16,4 14,4 15,9 20,2 19,1 15,0 9 5 26 14 W 1015,0 6 0 0,0
16.06.2018 20:00:00 20,0 12,3 19,5 21,5 19,1 15,0 11 6 17 9 SW 1013,7 40 17 0,0
16.06.2018 19:00:00 20,2 11,7 20,3 22,2 19,0 15,0 7 4 16 9 WSW 1013,6 35 3 0,0
16.06.2018 18:00:00 20,3 12,0 20,3 22,9 18,7 15,0 12 7 25 13 WSW 1013,9 20 1 0,0
16.06.2018 17:00:00 21,4 10,7 22,1 24,2 18,4 15,0 15 8 24 13 SW 1013,6 21 23 0,0
16.06.2018 16:00:00 22,9 11,1 25,8 24,6 18,0 15,0 10 5 18 10 SW 1013,3 24 42 0,0
16.06.2018 15:00:00 22,1 9,9 25,7 23,9 17,6 15,0 10 5 23 13 SW 1013,8 33 44 0,0
16.06.2018 14:00:00 21,0 9,1 23,7 22,9 17,3 15,0 10 5 18 10 SW 1014,7 34 33 0,0
16.06.2018 13:00:00 20,6 9,4 22,1 21,8 16,9 15,0 8 5 18 10 SSW 1014,9 41 27 0,0
16.06.2018 12:00:00 19,4 9,9 20,0 20,7 16,7 15,0 9 5 16 9 SSW 1015,3 46 24 0,0
16.06.2018 11:00:00 18,8 11,0 20,0 19,7 16,5 15,0 9 5 16 9 WSW 1015,5 33 37 0,0
16.06.2018 10:00:00 18,5 12,3 20,2 18,3 16,4 15,0 6 3 10 5 SSW 1015,6 35 43 0,0
16.06.2018 09:00:00 15,0 13,0 16,4 16,2 16,5 15,0 5 3 6 4 W 1016,3 19 15 0,0
16.06.2018 08:00:00 13,8 12,8 14,1 14,9 16,6 15,0 0 0 5 3 N 1016,3 10 0 0,0
16.06.2018 07:00:00 13,0 11,8 12,6 14,3 16,8 15,0 2 1 8 4 ESE 1016,4 10 0 0,0
16.06.2018 06:00:00 12,3 11,3 11,4 14,0 17,1 15,0 7 4 9 5 SSW 1016,6 15 0 0,0
16.06.2018 05:00:00 12,8 11,4 11,1 14,2 17,3 15,0 5 3 7 4 WSW 1016,6 21 0 0,0
16.06.2018 04:00:00 12,1 10,9 10,5 14,5 17,6 15,0 6 3 9 5 SW 1016,8 14 0 0,0
16.06.2018 03:00:00 13,7 11,5 11,7 15,1 17,8 15,0 7 4 9 5 S 1016,6 26 0 0,0
16.06.2018 02:00:00 14,3 11,6 12,2 15,8 18,0 15,0 7 4 10 5 S 1016,8 30 0 0,0
16.06.2018 01:00:00 14,2 11,0 12,3 16,5 18,2 15,1 7 4 9 5 SSW 1016,8 34 0 0,0
16.06.2018 00:00:00 15,7 10,9 13,3 17,4 18,4 15,1 3 2 6 3 SW 1016,4 47 0 0,0
15.06.2018 23:00:00 16,1 11,0 14,1 18,0 18,5 15,1 0 0 7 4 N 1016,6 48 0 0,0
15.06.2018 22:00:00 16,7 11,0 15,3 18,9 18,6 15,1 6 3 12 6 S 1016,2 49 0 0,0
15.06.2018 21:00:00 18,0 10,9 16,2 20,1 18,6 15,1 7 4 12 6 S 1016,0 61 14 0,0
15.06.2018 20:00:00 20,4 11,5 20,7 21,6 18,4 15,1 8 4 15 8 S 1015,3 32 60 0,0
15.06.2018 19:00:00 20,6 9,6 22,5 22,5 18,2 15,1 8 4 16 8 S 1015,2 37 58 0,0
15.06.2018 18:00:00 20,3 12,0 21,8 22,6 17,9 15,1 10 5 14 8 S 1015,5 30 16 0,0
15.06.2018 17:00:00 19,5 11,4 20,6 23,0 17,5 15,1 9 5 15 8 SW 1015,8 53 9 0,0
15.06.2018 16:00:00 19,2 11,7 21,1 22,8 17,1 15,1 5 3 13 7 SW 1016,1 57 8 0,0
15.06.2018 15:00:00 18,8 11,1 20,7 23,1 16,8 15,1 8 4 17 9 SE 1016,1 36 32 0,0
15.06.2018 14:00:00 17,5 12,3 19,6 21,8 16,4 15,2 5 3 13 7 ENE 1016,6 44 15 0,0
15.06.2018 13:00:00 17,6 12,4 20,6 20,4 16,1 15,2 9 5 14 8 SSE 1016,9 28 12 0,0
15.06.2018 12:00:00 16,1 11,5 18,5 19,8 15,9 15,2 9 5 13 7 ESE 1017,2 34 15 0,0
15.06.2018 11:00:00 16,2 11,6 18,6 18,1 15,7 15,2 5 3 10 6 NE 1017,2 36 5 0,0
15.06.2018 10:00:00 15,0 11,9 15,7 17,0 15,7 15,2 4 2 9 5 NE 1017,3 24 3 0,0
15.06.2018 09:00:00 14,2 12,0 14,3 15,6 15,7 15,2 4 2 6 4 NNW 1017,2 18 0 0,0
15.06.2018 08:00:00 13,5 12,5 13,4 14,6 15,8 15,2 5 3 7 4 S 1017,0 6 0 0,1
15.06.2018 07:00:00 12,8 12,2 12,5 14,3 15,9 15,2 4 2 6 3 SSW 1017,0 2,5 0 0,0
15.06.2018 06:00:00 12,5 12,2 12,4 14,3 16,0 15,2 3 1 7 4 NW 1016,8 0,2 0 0,0
15.06.2018 05:00:00 12,6 12,1 12,2 14,3 16,1 15,2 6 3 9 5 SSW 1016,6 3,9 0 0,1
15.06.2018 04:00:00 12,5 11,8 12,2 14,4 16,2 15,3 6 3 11 6 SSW 1016,7 2,8 0 0,0
15.06.2018 03:00:00 12,5 11,5 12,1 14,5 16,4 15,3 8 4 12 6 SSW 1017,1 9 0 0,0
15.06.2018 02:00:00 12,4 11,1 11,9 14,7 16,5 15,3 8 5 13 7 SSW 1017,3 10 0 0,0
15.06.2018 01:00:00 12,4 10,9 11,7 15,0 16,7 15,3 8 4 17 9 SSW 1017,4 14 0 0,0
15.06.2018 00:00:00 12,4 11,0 11,9 15,3 16,8 15,3 9 5 14 7 SW 1017,5 16 0 0,0
14.06.2018 23:00:00 12,7 11,4 12,1 15,8 16,9 15,3 9 5 14 7 S 1017,3 13 0 0,0
14.06.2018 22:00:00 12,9 12,1 12,5 16,4 17,0 15,3 8 4 11 6 SW 1017,0 7 0 0,4
14.06.2018 21:00:00 13,2 12,2 12,9 17,1 17,1 15,3 8 5 12 7 SW 1016,7 4,0 0 0,6
14.06.2018 20:00:00 13,8 12,4 13,5 17,9 17,1 15,4 6 3 12 7 SW 1016,1 8 0 1,3
14.06.2018 19:00:00 14,3 11,7 13,6 18,9 16,9 15,4 9 5 20 11 W 1015,6 9 0 0,6
14.06.2018 18:00:00 17,1 9,0 17,4 20,4 16,6 15,4 12 6 24 13 SW 1014,8 31 0 0,0
14.06.2018 17:00:00 18,1 8,6 20,3 21,2 16,3 15,4 13 7 27 15 SW 1014,6 19 21 0,0
14.06.2018 16:00:00 17,9 8,7 20,5 21,0 15,9 15,4 14 8 23 13 SW 1014,7 24 6 0,0
14.06.2018 15:00:00 17,4 7,7 19,6 21,4 15,5 15,4 13 7 26 14 WSW 1015,0 23 34 0,0
14.06.2018 14:00:00 16,8 7,2 19,9 20,0 15,1 15,4 14 8 27 14 WSW 1015,5 23 23 0,0
14.06.2018 13:00:00 16,8 7,4 20,1 19,4 14,7 15,4 13 7 25 14 SW 1015,8 17 21 0,0
14.06.2018 12:00:00 15,2 6,7 17,1 18,9 14,2 15,5 11 6 22 12 WSW 1016,1 21 25 0,0
14.06.2018 11:00:00 15,2 6,1 17,9 18,0 13,9 15,5 10 5 21 12 WSW 1016,1 26 48 0,0
14.06.2018 10:00:00 14,1 8,0 16,2 16,0 13,8 15,5 9 5 16 8 WSW 1016,4 17 60 0,0
14.06.2018 09:00:00 12,0 8,5 12,5 13,2 13,8 15,5 3 2 7 4 SW 1017,0 12 60 0,0
14.06.2018 08:00:00 8,9 6,7 9,2 10,9 14,0 15,5 3 2 7 4 SSW 1017,8 11 60 0,0
14.06.2018 07:00:00 6,9 5,3 6,6 9,8 14,2 15,5 3 2 8 4 SSW 1018,2 5 43 0,0

tt = Température de l'air
td = dewpoint
tt 5cm = Température de l'air 5cm
tt -5cm = Température de l'air -5cm
tt -20cm = Température de l'air -20cm
tt -100cm = Température de l'air -100cm
ff = Vitesse du vent
fx = gusts
dd = Direction du vent
ppp = reduced air pressure
vv = visibility
sd = Ensoleillement
rr = Quantités de précipitations

stations d'obs. à proximité